owner,sensor,date,latitude,longitude,vertical_datum,direction_of_sea_water_velocity,sea_water_speed,upward_sea_water_velocity,qcFlag 
TABS,ioos:station:wmo:42048:1,2013-05-01T00:00:00Z,27.9396,-96.8429,2.0,270.5373354,33.08145251,-99999.0,'11111222,11111222,99999999' 
TABS,ioos:station:wmo:42048:1,2013-05-01T00:30:00Z,27.9396,-96.8429,2.0,261.8174325,31.12685336,-99999.0,'11111222,11111222,99999999' 
TABS,ioos:station:wmo:42048:1,2013-05-01T01:00:00Z,27.9396,-96.8429,2.0,270.6982409,32.02237499,-99999.0,'11111222,11111222,99999999' 
TABS,ioos:station:wmo:42048:1,2013-05-01T01:30:00Z,27.9396,-96.8429,2.0,266.8624387,29.7846353,-99999.0,'11111222,11111222,99999999' 
TABS,ioos:station:wmo:42048:1,2013-05-01T02:00:00Z,27.9396,-96.8429,2.0,270.541112,29.67132117,-99999.0,'11111222,11111222,99999999' 
TABS,ioos:station:wmo:42048:1,2013-05-01T02:30:00Z,27.9396,-96.8429,2.0,271.1183458,27.16517072,-99999.0,'11111222,11111222,99999999' 
TABS,ioos:station:wmo:42048:1,2013-05-01T03:00:00Z,27.9396,-96.8429,2.0,262.1209241,29.32682901,-99999.0,'11111222,11111222,99999999' 
TABS,ioos:station:wmo:42048:1,2013-05-01T03:30:00Z,27.9396,-96.8429,2.0,266.325831,28.24804772,-99999.0,'11111222,11111222,99999999' 
TABS,ioos:station:wmo:42048:1,2013-05-01T04:00:00Z,27.9396,-96.8429,2.0,265.6518555,24.13946561,-99999.0,'11111222,11111222,99999999' 
TABS,ioos:station:wmo:42048:1,2013-05-01T04:30:00Z,27.9396,-96.8429,2.0,269.2323582,29.87267815,-99999.0,'11111222,11111222,99999999' 
TABS,ioos:station:wmo:42048:1,2013-05-01T05:00:00Z,27.9396,-96.8429,2.0,260.3310832,27.8658088,-99999.0,'11111222,11111222,99999999' 
TABS,ioos:station:wmo:42048:1,2013-05-01T05:30:00Z,27.9396,-96.8429,2.0,252.3414495,27.75786195,-99999.0,'11111222,11111222,99999999' 
TABS,ioos:station:wmo:42048:1,2013-05-01T06:00:00Z,27.9396,-96.8429,2.0,250.1991714,27.33616652,-99999.0,'11111222,11111222,99999999' 
TABS,ioos:station:wmo:42048:1,2013-05-01T06:30:00Z,27.9396,-96.8429,2.0,246.5091268,25.51448412,-99999.0,'11111222,11111222,99999999' 
TABS,ioos:station:wmo:42048:1,2013-05-01T07:00:00Z,27.9396,-96.8429,2.0,256.4129372,27.20120769,-99999.0,'11111222,11111222,99999999' 
TABS,ioos:station:wmo:42048:1,2013-05-01T07:30:00Z,27.9396,-96.8429,2.0,249.1585853,24.70652141,-99999.0,'11111222,11111222,99999999' 
TABS,ioos:station:wmo:42048:1,2013-05-01T08:00:00Z,27.9396,-96.8429,2.0,254.7329095,21.68525997,-99999.0,'11111222,11111222,99999999' 
TABS,ioos:station:wmo:42048:1,2013-05-01T08:30:00Z,27.9396,-96.8429,2.0,257.2495831,26.6880685,-99999.0,'11111222,11111222,99999999' 
TABS,ioos:station:wmo:42048:1,2013-05-01T09:00:00Z,27.9396,-96.8429,2.0,239.2284912,24.99948999,-99999.0,'11111222,11111222,99999999' 
TABS,ioos:station:wmo:42048:1,2013-05-01T09:30:00Z,27.9396,-96.8429,2.0,259.2217156,20.90884263,-99999.0,'11111222,11111222,99999999' 
TABS,ioos:station:wmo:42048:1,2013-05-01T10:00:00Z,27.9396,-96.8429,2.0,256.7795523,19.23987786,-99999.0,'11111222,11111222,99999999' 
TABS,ioos:station:wmo:42048:1,2013-05-01T10:30:00Z,27.9396,-96.8429,2.0,254.2255534,17.91464485,-99999.0,'11111222,11111222,99999999' 
TABS,ioos:station:wmo:42048:1,2013-05-01T11:00:00Z,27.9396,-96.8429,2.0,246.7972622,19.89948994,-99999.0,'11111222,11111222,99999999' 
TABS,ioos:station:wmo:42048:1,2013-05-01T11:30:00Z,27.9396,-96.8429,2.0,250.2711912,16.53027525,-99999.0,'11111222,11111222,99999999' 
TABS,ioos:station:wmo:42048:1,2013-05-01T12:00:00Z,27.9396,-96.8429,2.0,236.5582198,17.25688558,-99999.0,'11111222,11111222,99999999' 
TABS,ioos:station:wmo:42048:1,2013-05-01T12:30:00Z,27.9396,-96.8429,2.0,241.2371664,17.14536089,-99999.0,'11111222,11111222,99999999' 
TABS,ioos:station:wmo:42048:1,2013-05-01T13:00:00Z,27.9396,-96.8429,2.0,242.4468319,17.12188074,-99999.0,'11111222,11111222,99999999' 
TABS,ioos:station:wmo:42048:1,2013-05-01T13:30:00Z,27.9396,-96.8429,2.0,246.6423881,14.22579348,-99999.0,'11111222,11111222,99999999' 
TABS,ioos:station:wmo:42048:1,2013-05-01T14:00:00Z,27.9396,-96.8429,2.0,237.1181254,16.70645983,-99999.0,'11111222,11111222,99999999' 
TABS,ioos:station:wmo:42048:1,2013-05-01T14:30:00Z,27.9396,-96.8429,2.0,231.4148857,15.50494437,-99999.0,'11111222,11111222,99999999' 
TABS,ioos:station:wmo:42048:1,2013-05-01T15:00:00Z,27.9396,-96.8429,2.0,236.6298323,16.87147,-99999.0,'11111222,11111222,99999999' 
TABS,ioos:station:wmo:42048:1,2013-05-01T15:30:00Z,27.9396,-96.8429,2.0,254.2098919,18.70583064,-99999.0,'11111222,11111222,99999999' 
TABS,ioos:station:wmo:42048:1,2013-05-01T16:00:00Z,27.9396,-96.8429,2.0,243.9030524,18.05014404,-99999.0,'11111222,11111222,99999999' 
TABS,ioos:station:wmo:42048:1,2013-05-01T16:30:00Z,27.9396,-96.8429,2.0,248.5362441,18.2560264,-99999.0,'11111222,11111222,99999999' 
TABS,ioos:station:wmo:42048:1,2013-05-01T17:00:00Z,27.9396,-96.8429,2.0,249.7659346,16.01850492,-99999.0,'11111222,11111222,99999999' 
TABS,ioos:station:wmo:42048:1,2013-05-01T17:30:00Z,27.9396,-96.8429,2.0,250.5968976,17.03762014,-99999.0,'11111222,11111222,99999999' 
TABS,ioos:station:wmo:42048:1,2013-05-01T18:00:00Z,27.9396,-96.8429,2.0,243.8850455,14.78981068,-99999.0,'11111222,11111222,99999999' 
TABS,ioos:station:wmo:42048:1,2013-05-01T18:30:00Z,27.9396,-96.8429,2.0,234.9439553,13.26664992,-99999.0,'11111222,11111222,99999999' 
TABS,ioos:station:wmo:42048:1,2013-05-01T19:00:00Z,27.9396,-96.8429,2.0,241.8545098,19.94883957,-99999.0,'11111222,11111222,99999999' 
TABS,ioos:station:wmo:42048:1,2013-05-01T19:30:00Z,27.9396,-96.8429,2.0,238.0860024,16.55188811,-99999.0,'11111222,11111222,99999999' 
TABS,ioos:station:wmo:42048:1,2013-05-01T20:00:00Z,27.9396,-96.8429,2.0,232.7560524,18.70439788,-99999.0,'11111222,11111222,99999999' 
TABS,ioos:station:wmo:42048:1,2013-05-01T20:30:00Z,27.9396,-96.8429,2.0,231.3113725,18.84549018,-99999.0,'11111222,11111222,99999999' 
TABS,ioos:station:wmo:42048:1,2013-05-01T21:00:00Z,27.9396,-96.8429,2.0,230.9658909,20.81684414,-99999.0,'11111222,11111222,99999999' 
TABS,ioos:station:wmo:42048:1,2013-05-01T21:30:00Z,27.9396,-96.8429,2.0,236.7648909,21.63953789,-99999.0,'11111222,11111222,99999999' 
TABS,ioos:station:wmo:42048:1,2013-05-01T22:00:00Z,27.9396,-96.8429,2.0,236.5913171,19.74201864,-99999.0,'11111222,11111222,99999999' 
TABS,ioos:station:wmo:42048:1,2013-05-01T22:30:00Z,27.9396,-96.8429,2.0,236.3754222,21.72484753,-99999.0,'11111222,11111222,99999999' 
TABS,ioos:station:wmo:42048:1,2013-05-01T23:00:00Z,27.9396,-96.8429,2.0,237.8555655,23.644382,-99999.0,'11111222,11111222,99999999' 
TABS,ioos:station:wmo:42048:1,2013-05-01T23:30:00Z,27.9396,-96.8429,2.0,236.3651228,22.89248785,-99999.0,'11111222,11111222,99999999' 
TABS,ioos:station:wmo:42048:1,2013-05-02T00:00:00Z,27.9396,-96.8429,2.0,240.0024291,24.5020591,-99999.0,'11111222,11111222,99999999' 
TABS,ioos:station:wmo:42048:1,2013-05-02T00:30:00Z,27.9396,-96.8429,2.0,237.4802104,21.856976,-99999.0,'11111222,11111222,99999999' 
TABS,ioos:station:wmo:42048:1,2013-05-02T01:00:00Z,27.9396,-96.8429,2.0,229.2261978,22.73875326,-99999.0,'11111222,11111222,99999999' 
TABS,ioos:station:wmo:42048:1,2013-05-02T01:30:00Z,27.9396,-96.8429,2.0,233.6164091,22.1347984,-99999.0,'11111222,11111222,99999999' 
TABS,ioos:station:wmo:42048:1,2013-05-02T02:00:00Z,27.9396,-96.8429,2.0,228.79204,22.34400367,-99999.0,'11111222,11111222,99999999' 
TABS,ioos:station:wmo:42048:1,2013-05-02T02:30:00Z,27.9396,-96.8429,2.0,224.7640503,22.35183438,-99999.0,'11111222,11111222,99999999' 
TABS,ioos:station:wmo:42048:1,2013-05-02T03:00:00Z,27.9396,-96.8429,2.0,230.5401291,20.14056851,-99999.0,'11111222,11111222,99999999' 
TABS,ioos:station:wmo:42048:1,2013-05-02T03:30:00Z,27.9396,-96.8429,2.0,227.9598297,17.80041573,-99999.0,'11111222,11111222,99999999' 
TABS,ioos:station:wmo:42048:1,2013-05-02T04:00:00Z,27.9396,-96.8429,2.0,220.3726123,18.23206516,-99999.0,'11111222,11111222,99999999' 
TABS,ioos:station:wmo:42048:1,2013-05-02T04:30:00Z,27.9396,-96.8429,2.0,217.2800527,15.63440117,-99999.0,'11111222,11111222,99999999' 
TABS,ioos:station:wmo:42048:1,2013-05-02T05:00:00Z,27.9396,-96.8429,2.0,211.5421979,14.43234215,-99999.0,'11111222,11111222,99999999' 
TABS,ioos:station:wmo:42048:1,2013-05-02T05:30:00Z,27.9396,-96.8429,2.0,203.812874,17.13910149,-99999.0,'11111222,11111222,99999999' 
TABS,ioos:station:wmo:42048:1,2013-05-02T06:00:00Z,27.9396,-96.8429,2.0,198.8928718,16.21351597,-99999.0,'11111222,11111222,99999999' 
TABS,ioos:station:wmo:42048:1,2013-05-02T06:30:00Z,27.9396,-96.8429,2.0,193.178849,18.15824881,-99999.0,'11111222,11111222,99999999' 
TABS,ioos:station:wmo:42048:1,2013-05-02T07:00:00Z,27.9396,-96.8429,2.0,180.7959365,18.71180643,-99999.0,'11111222,11111222,99999999' 
TABS,ioos:station:wmo:42048:1,2013-05-02T07:30:00Z,27.9396,-96.8429,2.0,180.335562,18.77032232,-99999.0,'11111222,11111222,99999999' 
TABS,ioos:station:wmo:42048:1,2013-05-02T08:00:00Z,27.9396,-96.8429,2.0,170.907256,19.86967539,-99999.0,'11111222,11111222,99999999' 
TABS,ioos:station:wmo:42048:1,2013-05-02T08:30:00Z,27.9396,-96.8429,2.0,166.0782082,21.82097386,-99999.0,'11111222,11111222,99999999' 
TABS,ioos:station:wmo:42048:1,2013-05-02T09:00:00Z,27.9396,-96.8429,2.0,165.5203974,23.51695771,-99999.0,'11111222,11111222,99999999' 
TABS,ioos:station:wmo:42048:1,2013-05-02T09:30:00Z,27.9396,-96.8429,2.0,169.0202872,29.92781983,-99999.0,'11111222,11111222,99999999' 
TABS,ioos:station:wmo:42048:1,2013-05-02T10:00:00Z,27.9396,-96.8429,2.0,171.6314085,26.52239054,-99999.0,'11111222,11111222,99999999' 
TABS,ioos:station:wmo:42048:1,2013-05-02T10:30:00Z,27.9396,-96.8429,2.0,168.3886126,27.22717944,-99999.0,'11111222,11111222,99999999' 
TABS,ioos:station:wmo:42048:1,2013-05-02T11:00:00Z,27.9396,-96.8429,2.0,166.1301355,29.20141264,-99999.0,'11111222,11111222,99999999' 
TABS,ioos:station:wmo:42048:1,2013-05-02T11:30:00Z,27.9396,-96.8429,2.0,181.0859145,33.23597148,-99999.0,'11111222,11111222,99999999' 
TABS,ioos:station:wmo:42048:1,2013-05-02T12:00:00Z,27.9396,-96.8429,2.0,185.3626784,27.71130094,-99999.0,'11111222,11111222,99999999' 
TABS,ioos:station:wmo:42048:1,2013-05-02T12:30:00Z,27.9396,-96.8429,2.0,184.2673587,27.14526294,-99999.0,'11111222,11111222,99999999' 
TABS,ioos:station:wmo:42048:1,2013-05-02T13:00:00Z,27.9396,-96.8429,2.0,189.156264,24.94790172,-99999.0,'11111222,11111222,99999999' 
TABS,ioos:station:wmo:42048:1,2013-05-02T13:30:00Z,27.9396,-96.8429,2.0,180.6569325,23.54154838,-99999.0,'11111222,11111222,99999999' 
TABS,ioos:station:wmo:42048:1,2013-05-02T14:00:00Z,27.9396,-96.8429,2.0,181.5583071,23.89884098,-99999.0,'11111222,11111222,99999999' 
TABS,ioos:station:wmo:42048:1,2013-05-02T14:30:00Z,27.9396,-96.8429,2.0,188.0286602,26.41896478,-99999.0,'11111222,11111222,99999999' 
TABS,ioos:station:wmo:42048:1,2013-05-02T15:00:00Z,27.9396,-96.8429,2.0,186.532512,28.91776271,-99999.0,'11111222,11111222,99999999' 
TABS,ioos:station:wmo:42048:1,2013-05-02T15:30:00Z,27.9396,-96.8429,2.0,184.6413348,30.39969737,-99999.0,'11111222,11111222,99999999' 
TABS,ioos:station:wmo:42048:1,2013-05-02T16:00:00Z,27.9396,-96.8429,2.0,190.4960766,34.52776564,-99999.0,'11111222,11111222,99999999' 
TABS,ioos:station:wmo:42048:1,2013-05-02T16:30:00Z,27.9396,-96.8429,2.0,193.0326961,36.98265134,-99999.0,'11111222,11111222,99999999' 
TABS,ioos:station:wmo:42048:1,2013-05-02T17:00:00Z,27.9396,-96.8429,2.0,184.6943908,36.53256356,-99999.0,'11111222,11111222,99999999' 
TABS,ioos:station:wmo:42048:1,2013-05-02T17:30:00Z,27.9396,-96.8429,2.0,184.9512329,38.00181575,-99999.0,'11111222,11111222,99999999' 
TABS,ioos:station:wmo:42048:1,2013-05-02T18:00:00Z,27.9396,-96.8429,2.0,184.347682,44.97944642,-99999.0,'11111222,11111222,99999999' 
TABS,ioos:station:wmo:42048:1,2013-05-02T18:30:00Z,27.9396,-96.8429,2.0,184.122818,55.63398332,-99999.0,'11111222,11111222,99999999' 
TABS,ioos:station:wmo:42048:1,2013-05-02T19:00:00Z,27.9396,-96.8429,2.0,186.5603537,59.4291654,-99999.0,'11111222,11111222,99999999' 
TABS,ioos:station:wmo:42048:1,2013-05-02T19:30:00Z,27.9396,-96.8429,2.0,193.5590419,58.56225576,-99999.0,'11111222,11111222,99999999' 
TABS,ioos:station:wmo:42048:1,2013-05-02T20:00:00Z,27.9396,-96.8429,2.0,200.424841,64.01465223,-99999.0,'11111222,11111222,99999999' 
TABS,ioos:station:wmo:42048:1,2013-05-02T20:30:00Z,27.9396,-96.8429,2.0,205.4445352,62.44742589,-99999.0,'11111222,11111222,99999999' 
TABS,ioos:station:wmo:42048:1,2013-05-02T21:00:00Z,27.9396,-96.8429,2.0,208.6408582,59.62587777,-99999.0,'11111222,11111222,99999999' 
TABS,ioos:station:wmo:42048:1,2013-05-02T21:30:00Z,27.9396,-96.8429,2.0,211.5285075,61.04102964,-99999.0,'11111222,11111222,99999999' 
TABS,ioos:station:wmo:42048:1,2013-05-02T22:00:00Z,27.9396,-96.8429,2.0,215.8120968,62.31061306,-99999.0,'11111222,11111222,99999999' 
TABS,ioos:station:wmo:42048:1,2013-05-02T22:30:00Z,27.9396,-96.8429,2.0,217.9228481,58.42787177,-99999.0,'11111222,11111222,99999999' 
TABS,ioos:station:wmo:42048:1,2013-05-02T23:00:00Z,27.9396,-96.8429,2.0,215.4742859,57.00090175,-99999.0,'11111222,11111222,99999999' 
TABS,ioos:station:wmo:42048:1,2013-05-02T23:30:00Z,27.9396,-96.8429,2.0,220.2619092,52.05120556,-99999.0,'11111222,11111222,99999999' 
TABS,ioos:station:wmo:42048:1,2013-05-03T00:00:00Z,27.9396,-96.8429,2.0,220.5405189,61.66251698,-99999.0,'11111222,11111222,99999999' 
TABS,ioos:station:wmo:42048:1,2013-05-03T00:30:00Z,27.9396,-96.8429,2.0,226.7079954,48.38760998,-99999.0,'11111222,11111222,99999999' 
TABS,ioos:station:wmo:42048:1,2013-05-03T01:00:00Z,27.9396,-96.8429,2.0,222.9912895,49.23073227,-99999.0,'11111222,11111222,99999999' 
TABS,ioos:station:wmo:42048:1,2013-05-03T01:30:00Z,27.9396,-96.8429,2.0,219.0249083,50.20151492,-99999.0,'11111222,11111222,99999999' 
TABS,ioos:station:wmo:42048:1,2013-05-03T02:00:00Z,27.9396,-96.8429,2.0,220.785063,56.38160161,-99999.0,'11111222,11111222,99999999' 
TABS,ioos:station:wmo:42048:1,2013-05-03T02:30:00Z,27.9396,-96.8429,2.0,223.5750086,54.60552353,-99999.0,'11111222,11111222,99999999' 
TABS,ioos:station:wmo:42048:1,2013-05-03T03:00:00Z,27.9396,-96.8429,2.0,228.8425803,46.73878154,-99999.0,'11111222,11111222,99999999' 
TABS,ioos:station:wmo:42048:1,2013-05-03T03:30:00Z,27.9396,-96.8429,2.0,227.9656722,45.50671269,-99999.0,'11111222,11111222,99999999' 
TABS,ioos:station:wmo:42048:1,2013-05-03T04:00:00Z,27.9396,-96.8429,2.0,232.9927528,39.30811239,-99999.0,'11111222,11111222,99999999' 
TABS,ioos:station:wmo:42048:1,2013-05-03T04:30:00Z,27.9396,-96.8429,2.0,233.2239804,40.13805426,-99999.0,'11111222,11111222,99999999' 
TABS,ioos:station:wmo:42048:1,2013-05-03T05:00:00Z,27.9396,-96.8429,2.0,230.6362208,34.8449939,-99999.0,'11111222,11111222,99999999' 
TABS,ioos:station:wmo:42048:1,2013-05-03T05:30:00Z,27.9396,-96.8429,2.0,221.5359053,38.62201704,-99999.0,'11111222,11111222,99999999' 
TABS,ioos:station:wmo:42048:1,2013-05-03T06:00:00Z,27.9396,-96.8429,2.0,229.5903558,42.40688859,-99999.0,'11111222,11111222,99999999' 
TABS,ioos:station:wmo:42048:1,2013-05-03T06:30:00Z,27.9396,-96.8429,2.0,229.5194972,36.43029783,-99999.0,'11111222,11111222,99999999' 
TABS,ioos:station:wmo:42048:1,2013-05-03T07:00:00Z,27.9396,-96.8429,2.0,231.6539127,37.04028753,-99999.0,'11111222,11111222,99999999' 
TABS,ioos:station:wmo:42048:1,2013-05-03T07:30:00Z,27.9396,-96.8429,2.0,229.4337494,33.38343451,-99999.0,'11111222,11111222,99999999' 
TABS,ioos:station:wmo:42048:1,2013-05-03T08:00:00Z,27.9396,-96.8429,2.0,232.1263137,30.8347288,-99999.0,'11111222,11111222,99999999' 
TABS,ioos:station:wmo:42048:1,2013-05-03T08:30:00Z,27.9396,-96.8429,2.0,231.5625761,34.15077452,-99999.0,'11111222,11111222,99999999' 
TABS,ioos:station:wmo:42048:1,2013-05-03T09:00:00Z,27.9396,-96.8429,2.0,236.0981873,30.81935269,-99999.0,'11111222,11111222,99999999' 
TABS,ioos:station:wmo:42048:1,2013-05-03T09:30:00Z,27.9396,-96.8429,2.0,241.2391402,28.9514991,-99999.0,'11111222,11111222,99999999' 
TABS,ioos:station:wmo:42048:1,2013-05-03T10:00:00Z,27.9396,-96.8429,2.0,230.3457723,32.40624785,-99999.0,'11111222,11111222,99999999' 
TABS,ioos:station:wmo:42048:1,2013-05-03T10:30:00Z,27.9396,-96.8429,2.0,226.9535754,33.18260086,-99999.0,'11111222,11111222,99999999' 
TABS,ioos:station:wmo:42048:1,2013-05-03T11:00:00Z,27.9396,-96.8429,2.0,229.194629,31.41606755,-99999.0,'11111222,11111222,99999999' 
TABS,ioos:station:wmo:42048:1,2013-05-03T11:30:00Z,27.9396,-96.8429,2.0,230.2966352,31.48047808,-99999.0,'11111222,11111222,99999999' 
TABS,ioos:station:wmo:42048:1,2013-05-03T12:00:00Z,27.9396,-96.8429,2.0,232.0346438,30.13750487,-99999.0,'11111222,11111222,99999999' 
TABS,ioos:station:wmo:42048:1,2013-05-03T12:30:00Z,27.9396,-96.8429,2.0,228.2312962,32.11128462,-99999.0,'11111222,11111222,99999999' 
TABS,ioos:station:wmo:42048:1,2013-05-03T13:00:00Z,27.9396,-96.8429,2.0,230.349518,31.62522569,-99999.0,'11111222,11111222,99999999' 
TABS,ioos:station:wmo:42048:1,2013-05-03T13:30:00Z,27.9396,-96.8429,2.0,230.0995792,28.71615051,-99999.0,'11111222,11111222,99999999' 
TABS,ioos:station:wmo:42048:1,2013-05-03T14:00:00Z,27.9396,-96.8429,2.0,230.013636,33.33328667,-99999.0,'11111222,11111222,99999999' 
TABS,ioos:station:wmo:42048:1,2013-05-03T14:30:00Z,27.9396,-96.8429,2.0,226.7440292,25.55253803,-99999.0,'11111222,11111222,99999999' 
TABS,ioos:station:wmo:42048:1,2013-05-03T15:00:00Z,27.9396,-96.8429,2.0,225.7173027,24.27687995,-99999.0,'11111222,11111222,99999999' 
TABS,ioos:station:wmo:42048:1,2013-05-03T15:30:00Z,27.9396,-96.8429,2.0,228.1653245,25.35311026,-99999.0,'11111222,11111222,99999999' 
TABS,ioos:station:wmo:42048:1,2013-05-03T16:00:00Z,27.9396,-96.8429,2.0,231.1987575,24.09768454,-99999.0,'11111222,11111222,99999999' 
TABS,ioos:station:wmo:42048:1,2013-05-03T16:30:00Z,27.9396,-96.8429,2.0,237.4830364,20.31460804,-99999.0,'11111222,11111222,99999999' 
TABS,ioos:station:wmo:42048:1,2013-05-03T17:00:00Z,27.9396,-96.8429,2.0,230.3123841,20.46673887,-99999.0,'11111222,11111222,99999999' 
TABS,ioos:station:wmo:42048:1,2013-05-03T17:30:00Z,27.9396,-96.8429,2.0,225.3056078,18.54060409,-99999.0,'11111222,11111222,99999999' 
TABS,ioos:station:wmo:42048:1,2013-05-03T18:00:00Z,27.9396,-96.8429,2.0,213.57475,13.81483623,-99999.0,'11111222,11111222,99999999' 
TABS,ioos:station:wmo:42048:1,2013-05-03T18:30:00Z,27.9396,-96.8429,2.0,219.125357,17.47954519,-99999.0,'11111222,11111222,99999999' 
TABS,ioos:station:wmo:42048:1,2013-05-03T19:00:00Z,27.9396,-96.8429,2.0,227.439114,15.45014239,-99999.0,'11111222,11111222,99999999' 
TABS,ioos:station:wmo:42048:1,2013-05-03T19:30:00Z,27.9396,-96.8429,2.0,226.223149,11.25970692,-99999.0,'11111222,11111222,99999999' 
TABS,ioos:station:wmo:42048:1,2013-05-03T20:00:00Z,27.9396,-96.8429,2.0,226.3691736,12.13034624,-99999.0,'11111222,11111222,99999999' 
TABS,ioos:station:wmo:42048:1,2013-05-03T20:30:00Z,27.9396,-96.8429,2.0,216.0504974,12.59128667,-99999.0,'11111222,11111222,99999999' 
TABS,ioos:station:wmo:42048:1,2013-05-03T21:00:00Z,27.9396,-96.8429,2.0,228.6945236,11.30184498,-99999.0,'11111222,11111222,99999999' 
TABS,ioos:station:wmo:42048:1,2013-05-03T21:30:00Z,27.9396,-96.8429,2.0,218.8242493,10.32000484,-99999.0,'11111222,11111222,99999999' 
TABS,ioos:station:wmo:42048:1,2013-05-03T22:00:00Z,27.9396,-96.8429,2.0,201.7136738,9.730447061,-99999.0,'11133222,11111222,99999999' 
TABS,ioos:station:wmo:42048:1,2013-05-03T22:30:00Z,27.9396,-96.8429,2.0,214.2332928,8.478973995,-99999.0,'11133222,11111222,99999999' 
TABS,ioos:station:wmo:42048:1,2013-05-03T23:00:00Z,27.9396,-96.8429,2.0,212.060049,6.631349787,-99999.0,'11133222,11111222,99999999' 
TABS,ioos:station:wmo:42048:1,2013-05-03T23:30:00Z,27.9396,-96.8429,2.0,209.733756,6.552755146,-99999.0,'11133222,11111222,99999999' 
TABS,ioos:station:wmo:42048:1,2013-05-04T00:00:00Z,27.9396,-96.8429,2.0,200.7497345,4.149132439,-99999.0,'11133222,11111222,99999999' 
TABS,ioos:station:wmo:42048:1,2013-05-04T00:30:00Z,27.9396,-96.8429,2.0,216.2613283,3.956222946,-99999.0,'11133222,11111222,99999999' 
TABS,ioos:station:wmo:42048:1,2013-05-04T01:00:00Z,27.9396,-96.8429,2.0,194.7433179,1.375281789,-99999.0,'11133222,11111222,99999999' 
TABS,ioos:station:wmo:42048:1,2013-05-04T01:30:00Z,27.9396,-96.8429,2.0,300.2567873,2.222791038,-99999.0,'11133222,11111222,99999999' 
TABS,ioos:station:wmo:42048:1,2013-05-04T02:00:00Z,27.9396,-96.8429,2.0,268.6976295,2.200568108,-99999.0,'11133222,11111222,99999999' 
TABS,ioos:station:wmo:42048:1,2013-05-04T02:30:00Z,27.9396,-96.8429,2.0,333.653906,1.171708155,-99999.0,'11133222,11111222,99999999' 
TABS,ioos:station:wmo:42048:1,2013-05-04T03:00:00Z,27.9396,-96.8429,2.0,354.237591,2.191072797,-99999.0,'11133222,11111222,99999999' 
TABS,ioos:station:wmo:42048:1,2013-05-04T03:30:00Z,27.9396,-96.8429,2.0,331.8440849,2.415884931,-99999.0,'11133222,11111222,99999999' 
TABS,ioos:station:wmo:42048:1,2013-05-04T04:00:00Z,27.9396,-96.8429,2.0,261.2534373,1.052235715,-99999.0,'11133222,11111222,99999999' 
TABS,ioos:station:wmo:42048:1,2013-05-04T04:30:00Z,27.9396,-96.8429,2.0,316.8884993,1.931450232,-99999.0,'11133222,11111222,99999999' 
TABS,ioos:station:wmo:42048:1,2013-05-04T05:00:00Z,27.9396,-96.8429,2.0,351.8701271,2.969848481,-99999.0,'11133222,11111222,99999999' 
TABS,ioos:station:wmo:42048:1,2013-05-04T05:30:00Z,27.9396,-96.8429,2.0,357.1473058,3.013735224,-99999.0,'11133222,11111222,99999999' 
TABS,ioos:station:wmo:42048:1,2013-05-04T06:00:00Z,27.9396,-96.8429,2.0,1.692544032,4.401920036,-99999.0,'11133222,11111222,99999999' 
TABS,ioos:station:wmo:42048:1,2013-05-04T06:30:00Z,27.9396,-96.8429,2.0,39.99619698,1.54029218,-99999.0,'11133222,11111222,99999999' 
TABS,ioos:station:wmo:42048:1,2013-05-04T07:00:00Z,27.9396,-96.8429,2.0,358.6833011,2.610689564,-99999.0,'11133222,11111222,99999999' 
TABS,ioos:station:wmo:42048:1,2013-05-04T07:30:00Z,27.9396,-96.8429,2.0,7.577619829,2.199204402,-99999.0,'11133222,11111222,99999999' 
TABS,ioos:station:wmo:42048:1,2013-05-04T08:00:00Z,27.9396,-96.8429,2.0,357.8481508,4.793380853,-99999.0,'11133222,11111222,99999999' 
TABS,ioos:station:wmo:42048:1,2013-05-04T08:30:00Z,27.9396,-96.8429,2.0,340.0400415,4.276914776,-99999.0,'11133222,11111222,99999999' 
TABS,ioos:station:wmo:42048:1,2013-05-04T09:00:00Z,27.9396,-96.8429,2.0,351.361141,3.66154339,-99999.0,'11133222,11111222,99999999' 
TABS,ioos:station:wmo:42048:1,2013-05-04T09:30:00Z,27.9396,-96.8429,2.0,351.041451,4.302487653,-99999.0,'11133222,11111222,99999999' 
TABS,ioos:station:wmo:42048:1,2013-05-04T10:00:00Z,27.9396,-96.8429,2.0,359.3622007,4.490278388,-99999.0,'11133222,11144222,99999999' 
TABS,ioos:station:wmo:42048:1,2013-05-04T10:30:00Z,27.9396,-96.8429,2.0,358.4200417,5.802206477,-99999.0,'11133222,11111222,99999999' 
TABS,ioos:station:wmo:42048:1,2013-05-04T11:00:00Z,27.9396,-96.8429,2.0,341.4116975,11.79533806,-99999.0,'11111222,11111222,99999999' 
TABS,ioos:station:wmo:42048:1,2013-05-04T11:30:00Z,27.9396,-96.8429,2.0,338.2294423,10.43422254,-99999.0,'11111222,11111222,99999999' 
TABS,ioos:station:wmo:42048:1,2013-05-04T12:00:00Z,27.9396,-96.8429,2.0,352.5099381,13.42455213,-99999.0,'11111222,11111222,99999999' 
TABS,ioos:station:wmo:42048:1,2013-05-04T12:30:00Z,27.9396,-96.8429,2.0,357.5437673,13.53243511,-99999.0,'11111222,11111222,99999999' 
TABS,ioos:station:wmo:42048:1,2013-05-04T13:00:00Z,27.9396,-96.8429,2.0,0.134287388,12.8200351,-99999.0,'11111222,11111222,99999999' 
TABS,ioos:station:wmo:42048:1,2013-05-04T13:30:00Z,27.9396,-96.8429,2.0,9.360894904,12.05046472,-99999.0,'11111222,11111222,99999999' 
TABS,ioos:station:wmo:42048:1,2013-05-04T14:00:00Z,27.9396,-96.8429,2.0,15.88331829,12.64267377,-99999.0,'11111222,11111222,99999999' 
TABS,ioos:station:wmo:42048:1,2013-05-04T14:30:00Z,27.9396,-96.8429,2.0,9.216717118,11.1134738,-99999.0,'11111222,11111222,99999999' 
TABS,ioos:station:wmo:42048:1,2013-05-04T15:00:00Z,27.9396,-96.8429,2.0,25.51912488,11.51319678,-99999.0,'11111222,11111222,99999999' 
TABS,ioos:station:wmo:42048:1,2013-05-04T15:30:00Z,27.9396,-96.8429,2.0,31.9914066,12.91077457,-99999.0,'11111222,11111222,99999999' 
TABS,ioos:station:wmo:42048:1,2013-05-04T16:00:00Z,27.9396,-96.8429,2.0,31.4340343,12.54039872,-99999.0,'11111222,11111222,99999999' 